THOR ABLESTAR DEB, 657

Orbit data source: Space-Track

THOR ABLESTAR DEB, 657 is space debris in LEO originally from a launch on Thu, 29 Jun 1961 UTC launched from the Air Force Eastern Test Range (AFETR). Debris objects in space refer to the collection of defunct objects orbiting the Earth. Examples of debris include non-operational satellites, rocket bodies, and fragments generated from explosions, collisions, or faulty payload assembly.

Loading next visibility...
Identifier
657, 1961-015HJ
Orbit
LEO
Country
Flag of USUS
Related business
Manufacturer
Unknown
Mission
Spacecraft
Bus & Motor
Unknown
Mass
Unknown
Launch date (UTC)
1961-06-29 (64 years ago)
Launch vehicle
Unknown
Launch site
Air Force Eastern Test Range (AFETR)
Object type
Payload
Rocket body
Debris
Shape & HBR
Unknown shape, 0.1 m
Radar Cross Section
Small (<0.1 m²)

Expand to show TLE details & history
Last TLE update: 16 hours ago

TLE from 16 hours ago
0 THOR ABLESTAR DEB
1 00657U 61015HJ  25303.55250478  .00000636  00000-0  14868-2 0  9994
2 00657  66.2402 140.5716 0335117 145.3304 248.8162 13.11785193 74500
Epoch: 2025-10-30T13:15Z
TLE epoch observation values (Epoch: 2025-10-30T13:15:36.412Z)
Latitude
27.8405°
Longitude
-84.06382°
Altitude
1,318.011 km
Speed
7.154 km/s
True Right ascension
10h 15m 47s
True Declination
27° 42' 33"
Sunlit
Object was in daylight at epoch
Visualization orbit readout
Latitude
Unknown
Longitude
Unknown
Altitude
Unknown
Speed
Unknown
Apparent Right ascension
Unknown
Apparent Declination
Unknown
Sunlit
N/A
Visualization observer readout
Local Sidereal Time
00:58:47
Azimuth
Unknown
Elevation
Unknown
Doppler factor
Unknown
Orbital elements
Apogee altitude
1,469.227 km
Perigee altitude
960.325 km
Semi-major axis
7,592.913 km
Eccentricity
0.03351
Inclination
66.2402°
RAAN
140.5716°
Arg. of periapsis
145.3304°
True anomaly
245.29118°
Mean anomaly
248.8162°
Eccentric anomaly
247.04813°
Mean motion
3.28043 °/min
Orbital period
109.74 mins
BSTAR
0.0014868
Loading maneuver chart data...
Computing Atmospheric mass density...
Loading historical data...
Loading historical data...
Loading historical data...
Loading historical data...
Loading historical data...
Loading historical data...
Loading historical data...

Documentation

Showing up to 5 results
|